THOR ABLESTAR DEB, 141

Orbit data source: Space-Track

THOR ABLESTAR DEB, 141 is space debris in LEO originally from a launch on Thu, 29 Jun 1961 UTC launched from the Air Force Eastern Test Range (AFETR). Debris objects in space refer to the collection of defunct objects orbiting the Earth. Examples of debris include non-operational satellites, rocket bodies, and fragments generated from explosions, collisions, or faulty payload assembly.

Loading next visibility...
THOR ABLESTAR DEB details
Identifier
141, 1961-015AB
Orbit
LEO
Last TLE update2 days ago
Origin
Flag of USUSAF SSD (US)
ManufacturerUnknown
MissionSpacecraft
Bus & MotorUnknown
MassUnknown
Launch date (UTC)
1961-06-29 (64 years ago)
Launch vehicleUnknown
Launch site
Air Force Eastern Test Range (AFETR)
Object type
Payload
Rocket body
Debris
Shape & HBRUnknown
Radar Cross SectionMedium (>0.1 m² and <1 m²)

Expand to show TLE details & history

TLE from 2 days ago
0 THOR ABLESTAR DEB
1   141U 61015AB  25021.88873902  .00000744  00000-0  67636-3 0  9990
2   141  66.5870 218.8955 0053457  15.1447 345.1214 13.88454127201189
Epoch: 2025-01-21T21:19Z
Definitive object data (Epoch: 2025-01-21T21:19:47.051Z)
Latitude-0.00001°
Longitude137.46095°
Altitude898.342 km
Speed7.422 km/s
True Right ascension14h 35m 34s
True Declination0° 00' 00"
Sunlit
Object was in daylight at TLE epoch
Visualization TLE readout
Latitude-34.37948°
Longitude116.10022°
Altitude921.801 km
Speed7.403 km/s
Apparent Right ascension09h 33m 42s
Apparent Declination-64° 30' 11"
Sunlit
Object is in daylight
Visualization observer readout
Local Sidereal Time15:50:40
Azimuth212.576° SW
Elevation-37.127°
Doppler factor1
Orbital elements
Apogee altitude971.553 km
Perigee altitude893.393 km
Semi-major axis7,310.61 km
Eccentricity0.0053457
Inclination66.587°
RAAN218.8955°
Arg. of periapsis15.1447°
True anomaly344.96309°
Mean anomaly345.1214°
Eccentric anomaly345.04235°
Mean motion3.47226 °/min
BSTAR0.00067636
Orbital period103.68 mins
Loading maneuver chart data...

THOR ABLESTAR DEB Visibility forecast

Observer location: undefined°, undefined

Span
Click to sort rows by Start time (UTC) header in descending order
Start Az.
Max El. time (UTC)
Max El. Az.
Max El.
End time (UTC)
End Az.
11 mins2025-01-23 14:57:24.145Z228.12° WSW2025-01-23 15:02:24.145Z291.718° WNW38.6°2025-01-23 15:08:24.145Z20.655° NNE
9 mins2025-01-23 22:16:24.145Z356.978° N2025-01-23 22:20:24.145Z46.45° ENE25.41°2025-01-23 22:25:24.145Z104.218° ESE
10 mins2025-01-24 00:03:24.145Z315.32° NNW2025-01-24 00:07:24.145Z248.395° W38.977°2025-01-24 00:13:24.145Z171.568° S
9 mins2025-01-24 13:25:24.145Z167.623° S2025-01-24 13:29:24.145Z104.535° ESE31.462°2025-01-24 13:34:24.145Z45.544° ENE
|